This is the latest recevied weather packets stored in our database for station/object KP4CRN. If no packets are shown the sender has not sent any weather packets the latest 10 day(s).
| Time | Temp. | Humidity | Pressure | Rain* | Wind** | Luminosity | Snow |
|---|---|---|---|---|---|---|---|
| 1777479442 | 31.11° C | 71% | 1014.7 hPa | 0 mm | - | 697 W/m² | - |
| 1777479138 | 31.11° C | 73% | 1014.9 hPa | 0 mm | - | 962 W/m² | - |
| 1777478835 | 31.11° C | 75% | 1015 hPa | 0 mm | - | 491 W/m² | - |
| 1777478531 | 31.11° C | 74% | 1014.8 hPa | 0 mm | - | 464 W/m² | - |
| 1777478228 | 30.56° C | 74% | 1014.9 hPa | 0 mm | - | 324 W/m² | - |
| 1777477924 | 31.11° C | 73% | 1015 hPa | 0 mm | - | 586 W/m² | - |
| 1777477620 | 30.56° C | 74% | 1015.2 hPa | 0 mm | - | 476 W/m² | - |
| 1777477316 | 30.56° C | 74% | 1015.1 hPa | 0 mm | - | 507 W/m² | - |
| 1777477013 | 30.56° C | 75% | 1015.2 hPa | 0 mm | - | 440 W/m² | - |
| 1777476711 | 30° C | 76% | 1015.5 hPa | 0 mm | - | 420 W/m² | - |
| 1777476407 | 30° C | 76% | 1015.3 hPa | 0 mm | - | 441 W/m² | - |
| 1777476104 | 30° C | 77% | 1015.3 hPa | 0 mm | - | 279 W/m² | - |
| 1777475799 | 30° C | 78% | 1015.2 hPa | 0 mm | - | 246 W/m² | - |
| 1777475496 | 30° C | 78% | 1015.3 hPa | 0 mm | - | 294 W/m² | - |
| 1777475192 | 30.56° C | 76% | 1015.2 hPa | 0 mm | - | 590 W/m² | - |
| 1777474888 | 30° C | 77% | 1015.2 hPa | 0 mm | - | 305 W/m² | - |
| 1777474583 | 30° C | 77% | 1015.3 hPa | 0 mm | - | 632 W/m² | - |
| 1777474281 | 29.44° C | 78% | 1015.3 hPa | 0 mm | - | 503 W/m² | - |
| 1777473977 | 30° C | 78% | 1015.3 hPa | 0 mm | - | 396 W/m² | - |
| 1777473675 | 29.44° C | 78% | 1015.4 hPa | 0 mm | - | 361 W/m² | - |
| 1777473371 | 30° C | 77% | 1015.6 hPa | 0 mm | - | 351 W/m² | - |
| 1777473067 | 30° C | 76% | 1015.2 hPa | 0 mm | - | 392 W/m² | - |
| 1777472763 | 30° C | 76% | 1015.3 hPa | 0 mm | - | 508 W/m² | - |
| 1777472460 | 30° C | 77% | 1015.5 hPa | 0 mm | - | 473 W/m² | - |
| 1777472158 | 29.44° C | 77% | 1015.5 hPa | 0 mm | - | 553 W/m² | - |
* Rain latest hour (hover to see other rain measurements)
** Current wind speed in m/s (hover to see current wind gust speed)